TimeCST,TemperatureF,Dew PointF,Humidity,Sea Level PressureIn,VisibilityMPH,Wind Direction,Wind SpeedMPH,Gust SpeedMPH,PrecipitationIn,Events,Conditions,WindDirDegrees,DateUTC
12:53 AM,25.0,19.0,78,29.91,10.0,SW,3.5,-,N/A,,Clear,220,2013-01-08 06:53:00
1:53 AM,21.9,17.1,82,29.93,10.0,SSW,3.5,-,N/A,,Clear,210,2013-01-08 07:53:00
2:53 AM,19.9,16.0,85,29.94,10.0,SSW,4.6,-,N/A,,Clear,200,2013-01-08 08:53:00
3:53 AM,12.0,9.0,88,29.95,10.0,Calm,Calm,-,N/A,,Clear,0,2013-01-08 09:53:00
4:53 AM,10.0,7.0,87,29.96,10.0,Calm,Calm,-,N/A,,Clear,0,2013-01-08 10:53:00
5:21 AM,8.6,6.8,92,29.88,2.5,Calm,Calm,-,N/A,,Clear,0,2013-01-08 11:21:00
5:29 AM,8.6,6.8,92,29.88,1.5,Calm,Calm,-,N/A,,Clear,0,2013-01-08 11:29:00
5:33 AM,8.6,6.8,92,29.88,3.0,Calm,Calm,-,N/A,,Partly Cloudy,0,2013-01-08 11:33:00
5:44 AM,8.6,5.0,85,29.88,1.8,Calm,Calm,-,N/A,,Partly Cloudy,0,2013-01-08 11:44:00
5:53 AM,8.1,3.9,83,29.96,5.0,Calm,Calm,-,N/A,,Partly Cloudy,0,2013-01-08 11:53:00
6:53 AM,3.9,-0.0,84,29.99,10.0,Calm,Calm,-,N/A,,Clear,0,2013-01-08 12:53:00
7:05 AM,5.0,-0.4,78,29.90,10.0,Calm,Calm,-,N/A,,Scattered Clouds,0,2013-01-08 13:05:00
8:06 AM,8.6,3.2,79,29.91,1.5,Calm,Calm,-,N/A,,Haze,0,2013-01-08 14:06:00
8:16 AM,8.6,3.2,79,29.90,0.2,Calm,Calm,-,N/A,,Haze,0,2013-01-08 14:16:00
8:53 AM,12.0,8.1,84,29.98,0.2,Calm,Calm,-,N/A,Fog,Light Freezing Fog,0,2013-01-08 14:53:00
9:40 AM,14.0,10.4,86,29.91,1.0,Calm,Calm,-,N/A,,Overcast,0,2013-01-08 15:40:00
9:43 AM,14.0,10.4,86,29.91,3.0,Calm,Calm,-,N/A,,Mostly Cloudy,0,2013-01-08 15:43:00
9:53 AM,14.0,10.0,84,29.97,4.0,Calm,Calm,-,N/A,,Scattered Clouds,0,2013-01-08 15:53:00
10:53 AM,19.0,15.1,85,29.94,10.0,SE,5.8,-,N/A,,Clear,130,2013-01-08 16:53:00
11:53 AM,24.1,19.0,81,29.94,10.0,South,4.6,-,N/A,,Partly Cloudy,180,2013-01-08 17:53:00
12:53 PM,26.1,21.0,81,29.88,10.0,SE,6.9,-,N/A,,Overcast,140,2013-01-08 18:53:00
1:53 PM,30.0,21.0,69,29.85,10.0,SSE,4.6,-,N/A,,Overcast,150,2013-01-08 19:53:00
2:53 PM,30.9,21.9,69,29.80,10.0,ESE,6.9,-,N/A,,Overcast,120,2013-01-08 20:53:00
3:53 PM,32.0,21.9,66,29.77,10.0,SE,8.1,-,N/A,,Overcast,130,2013-01-08 21:53:00
4:53 PM,30.9,21.0,67,29.75,10.0,SSE,9.2,-,N/A,,Scattered Clouds,150,2013-01-08 22:53:00
5:45 PM,30.2,21.2,69,29.68,4.0,SSE,8.1,-,0.00,Snow,Light Snow,150,2013-01-08 23:45:00
5:53 PM,30.0,23.0,75,29.75,2.5,SSE,5.8,-,0.00,Snow,Light Snow,150,2013-01-08 23:53:00
6:17 PM,30.2,24.8,80,29.66,1.2,SSE,5.8,-,0.00,Snow,Light Snow,150,2013-01-09 00:17:00
6:36 PM,28.4,24.8,86,29.66,1.2,SSE,4.6,-,0.00,Snow,Light Snow,160,2013-01-09 00:36:00
6:53 PM,28.9,25.0,85,29.74,1.0,SSE,5.8,-,0.01,Snow,Light Snow,160,2013-01-09 00:53:00
7:01 PM,28.4,24.8,86,29.65,1.8,SSE,6.9,-,0.00,Snow,Light Snow,160,2013-01-09 01:01:00
7:28 PM,28.4,24.8,86,29.64,3.0,South,3.5,-,0.01,Snow,Light Snow,170,2013-01-09 01:28:00
7:53 PM,28.9,25.0,85,29.72,4.0,South,3.5,-,0.01,Snow,Light Snow,180,2013-01-09 01:53:00
8:53 PM,28.9,24.1,82,29.71,9.0,SSW,5.8,-,0.00,,Overcast,210,2013-01-09 02:53:00
9:48 PM,30.2,24.8,80,29.64,7.0,WSW,8.1,-,N/A,,Overcast,240,2013-01-09 03:48:00
9:53 PM,30.0,24.1,79,29.71,7.0,WSW,6.9,-,N/A,,Overcast,250,2013-01-09 03:53:00
10:19 PM,30.2,24.8,80,29.63,6.0,SW,3.5,-,N/A,,Haze,230,2013-01-09 04:19:00
10:53 PM,30.0,25.0,82,29.71,6.0,SW,4.6,-,N/A,,Haze,220,2013-01-09 04:53:00
11:53 PM,30.0,25.0,82,29.72,7.0,SW,3.5,-,N/A,,Overcast,220,2013-01-09 05:53:00